Location: Cieszkowy
(50.3290°N, 20.5336°E)
Time: 16:31:37
(UTC+00:00)

Cosmos 990 Rocket - Pass Details

Date: 14 September 2024
Orbit: 744 x 765 km, 74.0° (Epoch: 11 October)

Event Time Altitude Azimuth Distance (km) Brightness Sun altitude
Rises 17:30:19 0° 318° (NW) 3,235 8.2 -6.7°
Reaches altitude 10° 17:34:44 10° 283° (WNW) 2,295 8.3 -7.4°
Maximum altitude 17:35:59 11° 269° (W) 2,234 7.9 -7.6°
Drops below altitude 10° 17:37:13 10° 255° (WSW) 2,288 7.6 -7.8°
Sets 17:41:36 0° 220° (SW) 3,198 7.6 -8.5°
